Hourly Data Report for December 06, 2012

BAGOTVILLE A
QUEBEC

48°20'00.000" N
71°00'00.000" W
159.10 m
7060400
71727
YBG

Download Data

Hourly Data (December 2012)
Hourly Data Report for December 6, 2012
TIME
LST
Temp Definition
°C
Dew Point Definition
°C
Rel Hum Definition
%
Precip. Amount Definition
mm

Wind Dir Definition
10's deg

Wind Spd Definition
km/h
Visibility Definition
km
Stn Press Definition
kPa
Hmdx Definition


Wind Chill Definition


Weather Definition


00:00 -7.9 -12.8 68   29 33 24.1 100.20   -17 Snow Showers
01:00 -7.8 -12.7 68   30 35 24.1 100.29   -17 Cloudy
02:00 -7.9 -12.8 68   31 24 24.1 100.40   -16 Snow Showers
03:00 -8.0 -12.9 68   29 30 24.1 100.44   -17 Snow Showers
04:00 -8.0 -12.9 68   32 19 19.3 100.53   -15 Snow Showers
05:00 -8.0 -13.4 65   31 20 24.1 100.63   -15 Snow Showers
06:00 -8.1 -14.0 62   30 20 24.1 100.71   -15 Snow Showers
07:00 -8.1 -12.6 70   29 22 24.1 100.74   -16 Snow Showers
08:00 -8.6 -12.4 74   29 15 24.1 100.75   -15 Snow Showers
09:00 -8.2 -12.8 69   28 15 6.4 100.81   -15 Snow Showers
10:00 -8.1 -12.2 72   31 13 4.8 100.84   -14 Snow Showers
11:00 -8.1 -11.0 80   30 15 4.8 100.80   -14 Snow Showers
12:00 -7.5 -12.3 68   30 11 24.1 100.75   -13 Snow Showers
13:00 -7.3 -11.6 71   30 9 32.2 100.69   -12 Snow Showers
14:00 -6.2 -12.2 62   35 4 40.2 100.60   -8 Mainly Clear
15:00 -7.2 -13.2 62   3 4 40.2 100.60   -9 Mostly Cloudy
16:00 -7.7 -12.5 68   7 4 40.2 100.63   -10 Mainly Clear
17:00 -8.8 -12.2 76   11 6 32.2 100.53   -12 Mainly Clear
18:00 -10.5 -13.5 79   15 9 24.1 100.45   -15 Mostly Cloudy
19:00 -10.1 -13.0 79   16 4 24.1 100.45   -12 Mostly Cloudy
20:00 -9.0 -12.5 76   13 6 24.1 100.44   -12 Mostly Cloudy
21:00 -8.9 -11.5 81   12 9 24.1 100.34   -14 Mostly Cloudy
22:00 -8.5 -11.5 79   13 7 24.1 100.27   -12 Cloudy
23:00 -8.5 -11.1 81   12 7 24.1 100.18   -12 Mostly Cloudy

Notes on Data Quality.

Legend

  • E = Estimated
  • M = Missing
  • NA = Not Available*
  • [empty] = Indicates an unobserved value
Date modified: